www.pogodaiklimat.ru

Погода и климат >> Архив погоды >> Боливия >> Santa Rosa


ПОГОДА в Santa Rosa

  • Прогноз погоды в Santa Rosa
  • Монитор погоды в Santa Rosa
  • Климат города

АРХИВ ПОГОДЫ в Santa Rosa

Время (UTC), дата Ветер
(напр.,м/с)
 
Видим.   Явления Облачность Т
(С)
Тd
(С)
f
(%)
Тe
(С)
Тes
(С)
Комфортность P
(гПа)
Po
(гПа)
Тmin
(С)
Tmax
(С)
R
(мм)
R24
(мм)
S
(см)
12 14.04 ЮВ 8 15 км 9/8 300 м
[Sc Ci]
+22.8 +21.0 90 +30 +30 очень
душно
1017.3 997.6 +21.8 4
15 14.04 ЮВ 8 15 км 8/8 450 м
[Sc Ac trans]
+25.2 +21.8 81 +32 +33 очень
душно
1018.7 999.1
18 14.04 ЮВ 5 15 км 8/8 450 м
[Sc]
+27.4 +21.8 72 +35 +37 очень
душно
1016.9 997.2
21 14.04 ЮВ 4 15 км 4/4 450 м
[Sc]
+27.8 +22.2 72 +36 +37 очень
душно
1013.2 993.6 +29.6
12 15.04 ЮВ 5 15 км 3/3 300 м
[Sc]
+22.0 +19.8 87 +28 +28 душно 1018.0 998.0 +20.0
15 15.04 ЮВ 8 15 км 3/3 300 м
[Sc]
+27.6 +21.5 69 +35 +37 очень
душно
1020.5 1000.6
18 15.04 ЮВ 8 15 км 6/6 450 м
[Cu med, cong]
+29.2 +21.5 63 +37 +38 очень
душно
1017.8 998.1
21 15.04 ЮВ 4 15 км 4/4 450 м
[Cu med, cong]
+27.4 +22.4 74 +36 +37 очень
душно
1015.7 996.0 +29.8
12 16.04 ЮВ 3 15 км ясно +23.4 +20.6 84 +31 +33 очень
душно
1013.0 993.4 +21.8
15 16.04 ЮВ 8 15 км 1/1 500 м
[Cu hum]
+27.4 +21.3 69 +35 +38 очень
душно
1016.2 996.6
18 16.04 ЮВ 3 15 км 5/5 500 м
[Cu med, cong]
+30.0 +21.7 61 +38 +44 очень
душно
1016.3 996.5
21 16.04 ЮВ 3 15 км 3/3 500 м
[Cu med, cong]
+30.5 +22.7 63 +40 +41 очень
душно
1013.6 994.0 +32.6
12 17.04 штиль 0 15 км ясно +23.5 +22.5 94 +31 +34 очень
душно
1015.2 995.6 +21.8
15 17.04 ЮВ 3 15 км 4/4 500 м
[Cu med, cong]
+29.2 +24.2 74 +41 +48 опасность
перегрева
1016.5 996.7
18 17.04 ЮВ 3 15 км 4/4 500 м
[Cu med, cong]
+31.2 +24.3 67 +43 +51 опасность
перегрева
1013.6 994.0
21 17.04 В 2 15 км 3/3 500 м
[Cu med, cong]
+30.5 +23.5 66 +41 +43 опасность
перегрева
1011.6 992.1 +32.6
12 18.04 штиль 0 15 км 4/0 2000 м
[Ac trans]
+24.4 +21.8 85 +31 +34 очень
душно
1012.6 993.0 +22.8
15 18.04 ЮВ 3 15 км 5/4 500 м
[Cb cap Ci]
+29.8 +21.8 62 +38 +46 очень
душно
996.2
18 18.04 штиль 0 8000 м гроза без осадков туман 8/5 500 м
[Cb cap Ci]
+27.2 +23.1 78 +36 +45 очень
душно
1014.5 995.0
21 18.04 штиль 0 15 км 8/4 500 м
[Cb cap Ci]
+26.4 +23.1 82 +35 +37 очень
душно
1012.5 993.0 +31.0
12 19.04 ЮВ 2 15 км ясно +22.5 +21.8 96 +30 +32 очень
душно
1015.8 996.0 +20.0
15 19.04 штиль 0 15 км ясно +28.5 +23.0 72 +38 +59 опасность
солнечного
удара
1016.5 996.7
18 19.04 СЗ 2 15 км 4/4 500 м
[Cu med, cong]
+32.0 +21.8 55 +41 +49 опасность
перегрева
1013.0 993.8
21 19.04 штиль 0 15 км 3/3 500 м
[Cu med, cong]
+32.0 +21.8 55 +41 +42 опасность
перегрева
1010.2 991.0 +33.3
12 20.04 штиль 0 15 км 1/1 500 м
[Cu hum]
+25.5 +22.7 85 +34 +36 очень
душно
1013.1 993.6 +21.5
15 20.04 С 3 15 км 4/4 500 м
[Cu med, cong]
+29.0 +24.4 76 +41 +49 опасность
перегрева
1014.8 995.1
18 20.04 С 3 15 км 5/5 500 м
[Cb cap Ci fib]
+31.5 +24.9 68 +45 +51 опасность
перегрева
1012.6 993.0
21 20.04 С 3 8000 м осадки на расстоянии 6/4 500 м
[Cb cap Ci]
+30.2 +25.5 76 +44 +45 опасность
перегрева
1008.5 989.2 +32.6

 

Местоположение метеостанции Santa Rosa (Боливия): широта -14.17 долгота -66.90 высота над уровнем моря 225 м.

В архиве по умолчанию представлена погода в Santa Rosa за последнюю неделю. Архивные данные за месяц целиком и за предыдущие месяцы, начиная с января 2011 года, Вы можете получить, выбрав интересующий диапазон дат из раскрывающегося списка и нажав кнопку "Ввод!".


*Определитесь, кто Вы:
робот инопланетянин человек

Внимание! Время в таблицах - всемирное. Для получения местного времени необходимо прибавить поправку, которая в Santa Rosa равна -4 ч.

Смотрите также архив погоды в соседних городах и на ближайших метеорологических станциях:

Погода в Reyes (Боливия) (54 км)
Погода в San Borja (Боливия) (77 км)
Погода в Rurrenabaque (Боливия) (78 км)
Погода в San Ignacio De Moxo (Боливия) (162 км)
Погода в Santa Ana (Боливия) (165 км)
Погода в Baures (Боливия) (165 км)
Погода в Trinidad (Боливия) (226 км)
Погода в San Ramon (Боливия) (257 км)
Погода в San Joaquin (Боливия) (257 км)
Погода в Ovejuyo (Боливия) (289 км)

Пояснения к столбцам:

Ветер - указаны скорость ветра в м/с - средняя за 10 мин, порывы в срок и между сроками (в фигурных скобках) и направление, откуда дует ветер: С - северный, СВ - северо-восточный, В - восточный, ЮВ - юго-восточный, Ю - южный, ЮЗ - юго-западный, З - западный, СЗ - северо-западный.
Видимость - горизонтальная дальность видимости в метрах или километрах. При видимости от 1 до 10 км при отсутствии осадков обычно наблюдается дымка, при ухудшении видимости до 1 км и менее - туман. В сухую погоду видимость может ухудшаться дымом, пылью или мглою.
Явления - указаны атмосферные явления, наблюдавшиеся в срок или в последний час перед сроком; фигурными скобками обозначены явления, наблюдавшиеся между сроками (за 1-3 часа до срока); квадратными скобками обозначены град или гололедные отложения с указанием их диаметра в мм.
Облачность - указаны через наклонную черту общая и нижняя облачность в баллах и высота нижней границы облаков в метрах; квадратными скобками обозначены формы облаков: Ci - перистые, Cs - перисто-слоистые, Cc - перисто-кучевые, Ac - высококучевые, As - высокослоистые, Sc - слоисто-кучевые, Ns - слоисто-дождевые, Cu - кучевые, Cb - кучево-дождевые. Подробнее классификацию облаков см. в Атласе облаков (PDF).
T - Температура воздуха - температура, измеренная на высоте 2 м над землей.
Td - Температура точки росы - температура, при понижении до которой содержащийся в воздухе водяной пар достигнет насыщения.
f - Относительная влажность воздуха - влажноcть воздуха, измеренная на высоте 2 м над землей.
Te - Эффективная температура - температура, которую ощущает одетый по сезону человек в тени. Характеристика душности погоды. При расчете учитывается влияние влажности воздуха и скорости ветра на теплоощущения человека.
Tes - Эффективная температура на солнце - температура, которую ощущает человек, с поправкой на солнечный нагрев. Характеристика знойности погоды. Зависит от высоты солнца над горизонтом, облачности и скорости ветра. Ночью, в пасмурную погоду, а также при ветре 12 м/с и более поправка равна нулю.
P - Атмосферное давление - приведенное к уровню моря атмосферное давление.
Po - Атмосферное давление - измеренное на уровне метеостанции атмосферное давление.
Tmin - Минимальная температура - минимум температуры воздуха на высоте 2 м над землей.
Tmax - Максимальная температура - максимум температуры воздуха на высоте 2 м над землей.
R - Количество осадков - Количество выпавших осадков за период времени, мм. При наведении курсора мыши на число - период времени, за который выпало указанное количество осадков.
R24 - Количество осадков - Количество выпавших осадков за 24 часа, мм.
S - Снежный покров - Высота снежного покрова, см. При наведении курсора мыши на число - состояние снежного покрова и степень покрытия местности в баллах.